QPF
0.01 0.01 0.01 0.02 0.03 0.04 0.03 0.04 0.04 0.03 0.04 0.04 0.04 0.03 0.03 0.03 0.05 0.05 0.05 0.03 0.02 0.01 0.01 0.02 0.03 0.03 0.04 0.06 0.07 0.07 0.06 0.04 0.04 0.05 0.05 0.05 0.05 0.06
0.01 0.01 0.01 0.02 0.03 0.05 0.05 0.05 0.06 0.06 0.06 0.05 0.04 0.04 0.03 0.02 0.02 0.06 0.07 0.04 0.03 0.01 0.01 0.01 0.01 0.01 0.01 0.03 0.04 0.05 0.06 0.05 0.03 0.02 0.03 0.04 0.04 0.04
0.02 0.03 0.03 0.03 0.03 0.04 0.05 0.06 0.07 0.08 0.08 0.06 0.05 0.04 0.03 0.03 0.04 0.06 0.07 0.05 0.04 0.02 0.01 0.01 0.01 0.01 0.01 0.01 0.01 0.02 0.03 0.03 0.02 0.02 0.02 0.02 0.03 0.03
0.02 0.03 0.04 0.04 0.04 0.04 0.05 0.06 0.07 0.07 0.08 0.07 0.05 0.04 0.03 0.04 0.04 0.05 0.05 0.04 0.04 0.03 0.02 0.01 0.01 0.00 0.00 0.01 0.01 0.01 0.01 0.01 0.01 0.01 0.01 0.01 0.02 0.02
0.03 0.03 0.03 0.05 0.05 0.04 0.05 0.05 0.06 0.05 0.06 0.06 0.05 0.05 0.05 0.05 0.05 0.05 0.05 0.05 0.03 0.02 0.01 0.01 0.01 0.01 0.01 0.01 0.01 0.01 0.01 0.01 0.01 0.00 0.00 0.01 0.01 0.02
0.03 0.03 0.04 0.04 0.04 0.05 0.05 0.05 0.05 0.05 0.06 0.06 0.06 0.06 0.06 0.06 0.06 0.05 0.04 0.05 0.03 0.01 0.01 0.01 0.01 0.01 0.01 0.01 0.01 0.01 0.01 0.01 0.01 0.01 0.00 0.01 0.01 0.01
0.02 0.03 0.03 0.03 0.03 0.03 0.03 0.03 0.05 0.07 0.07 0.08 0.07 0.07 0.06 0.06 0.06 0.05 0.04 0.04 0.04 0.02 0.03 0.02 0.02 0.01 0.02 0.02 0.01 0.01 0.01 0.01 0.01 0.01 0.01 0.01 0.01 0.01
0.03 0.03 0.03 0.03 0.03 0.03 0.02 0.02 0.03 0.05 0.07 0.07 0.08 0.08 0.07 0.06 0.05 0.04 0.03 0.04 0.04 0.03 0.03 0.02 0.02 0.02 0.02 0.02 0.01 0.01 0.01 0.01 0.01 0.01 0.01 0.01 0.01 0.01
0.03 0.03 0.03 0.03 0.03 0.02 0.02 0.02 0.03 0.03 0.05 0.08 0.09 0.09 0.08 0.05 0.04 0.04 0.04 0.04 0.04 0.04 0.03 0.02 0.02 0.02 0.01 0.01 0.01 0.01 0.01 0.01 0.01 0.01 0.02 0.02 0.01 0.01
0.02 0.02 0.03 0.03 0.03 0.03 0.03 0.03 0.04 0.04 0.05 0.07 0.08 0.07 0.05 0.03 0.03 0.04 0.04 0.03 0.03 0.03 0.03 0.03 0.03 0.02 0.02 0.02 0.01 0.00 0.01 0.01 0.01 0.01 0.01 0.02 0.02 0.02
0.02 0.02 0.02 0.03 0.04 0.04 0.04 0.04 0.04 0.04 0.04 0.04 0.04 0.05 0.05 0.02 0.01 0.02 0.02 0.03 0.02 0.02 0.03 0.03 0.03 0.03 0.03 0.03 0.01 0.00 0.00 0.00 0.01 0.01 0.02 0.02 0.01 0.02
0.02 0.03 0.03 0.03 0.03 0.04 0.05 0.05 0.03 0.03 0.03 0.03 0.04 0.04 0.05 0.03 0.01 0.02 0.02 0.02 0.03 0.03 0.03 0.03 0.03 0.03 0.03 0.03 0.02 0.01 0.01 0.01 0.01 0.01 0.02 0.03 0.03 0.02
0.01 0.02 0.03 0.03 0.04 0.04 0.04 0.03 0.02 0.03 0.03 0.02 0.03 0.05 0.07 0.06 0.03 0.02 0.02 0.02 0.03 0.03 0.03 0.03 0.03 0.03 0.04 0.04 0.03 0.03 0.03 0.02 0.01 0.01 0.02 0.03 0.04 0.03
0.01 0.01 0.02 0.02 0.02 0.01 0.01 0.01 0.01 0.02 0.03 0.04 0.03 0.04 0.05 0.07 0.05 0.04 0.03 0.02 0.02 0.03 0.04 0.04 0.04 0.04 0.04 0.05 0.04 0.05 0.05 0.04 0.02 0.02 0.02 0.03 0.04 0.05
0.01 0.01 0.01 0.01 0.01 0.01 0.01 0.01 0.01 0.01 0.03 0.04 0.04 0.03 0.04 0.05 0.05 0.05 0.04 0.03 0.02 0.02 0.02 0.03 0.04 0.04 0.04 0.04 0.04 0.04 0.05 0.05 0.04 0.03 0.02 0.02 0.04 0.05
0.01 0.01 0.01 0.00 0.01 0.01 0.01 0.01 0.01 0.02 0.03 0.04 0.04 0.04 0.05 0.06 0.06 0.07 0.07 0.05 0.05 0.04 0.03 0.03 0.03 0.05 0.04 0.04 0.04 0.03 0.04 0.05 0.05 0.04 0.04 0.03 0.03 0.04
0.00 0.01 0.01 0.01 0.01 0.01 0.02 0.01 0.02 0.02 0.02 0.03 0.03 0.03 0.03 0.04 0.05 0.06 0.07 0.06 0.07 0.06 0.06 0.05 0.04 0.04 0.04 0.04 0.04 0.04 0.04 0.05 0.04 0.05 0.05 0.04 0.03 0.02
0.00 0.01 0.01 0.02 0.01 0.01 0.02 0.02 0.02 0.02 0.02 0.02 0.02 0.02 0.03 0.03 0.03 0.04 0.05 0.06 0.06 0.06 0.06 0.07 0.06 0.04 0.03 0.03 0.02 0.03 0.04 0.04 0.04 0.05 0.05 0.05 0.04 0.03
0.01 0.01 0.01 0.02 0.01 0.01 0.01 0.01 0.01 0.01 0.01 0.01 0.01 0.02 0.03 0.04 0.05 0.04 0.04 0.05 0.05 0.05 0.05 0.05 0.05 0.05 0.04 0.04 0.03 0.02 0.03 0.04 0.05 0.05 0.05 0.04 0.05 0.04
0.01 0.01 0.01 0.01 0.01 0.01 0.01 0.01 0.01 0.01 0.01 0.01 0.01 0.03 0.04 0.04 0.04 0.03 0.04 0.04 0.05 0.05 0.05 0.04 0.04 0.05 0.05 0.05 0.04 0.03 0.03 0.04 0.05 0.05 0.04 0.03 0.03 0.04
0.01 0.01 0.01 0.01 0.01 0.01 0.01 0.01 0.01 0.01 0.01 0.02 0.03 0.04 0.05 0.04 0.04 0.04 0.04 0.04 0.03 0.04 0.04 0.04 0.04 0.04 0.04 0.04 0.04 0.04 0.04 0.04 0.04 0.04 0.04 0.05 0.05 0.05
0.01 0.01 0.01 0.00 0.01 0.01 0.01 0.01 0.01 0.02 0.03 0.03 0.03 0.03 0.03 0.04 0.03 0.04 0.04 0.04 0.04 0.03 0.03 0.03 0.04 0.04 0.04 0.05 0.05 0.05 0.05 0.05 0.04 0.02 0.02 0.03 0.04 0.04
0.01 0.01 0.00 0.00 0.00 0.01 0.01 0.01 0.02 0.03 0.03 0.02 0.02 0.02 0.02 0.03 0.03 0.02 0.03 0.03 0.03 0.04 0.04 0.04 0.04 0.04 0.05 0.05 0.06 0.06 0.06 0.05 0.04 0.03 0.02 0.01 0.01 0.02
MSLP
1014.99 1014.78 1014.55 1014.28 1013.94 1013.51 1013.01 1012.46 1011.88 1011.32 1010.83 1010.42 1010.12 1009.93 1009.83 1009.78 1009.75 1009.71 1009.64 1009.52 1009.36 1009.19 1009.04 1008.93 1008.89 1008.94 1009.07 1009.28 1009.54 1009.83 1010.11 1010.36 1010.57 1010.73 1010.85 1010.94 1011.01 1011.06
1014.76 1014.55 1014.33 1014.07 1013.75 1013.35 1012.86 1012.29 1011.68 1011.07 1010.49 1009.99 1009.60 1009.32 1009.14 1009.04 1008.99 1008.96 1008.91 1008.84 1008.74 1008.63 1008.53 1008.47 1008.47 1008.56 1008.73 1008.97 1009.26 1009.57 1009.87 1010.12 1010.32 1010.46 1010.53 1010.55 1010.55 1010.53
1014.54 1014.31 1014.08 1013.84 1013.53 1013.15 1012.68 1012.13 1011.51 1010.86 1010.23 1009.66 1009.18 1008.81 1008.55 1008.39 1008.30 1008.24 1008.20 1008.15 1008.08 1008.01 1007.95 1007.94 1007.99 1008.11 1008.32 1008.59 1008.90 1009.23 1009.54 1009.79 1009.98 1010.09 1010.12 1010.10 1010.05 1010.00
1014.33 1014.07 1013.82 1013.57 1013.28 1012.92 1012.48 1011.95 1011.35 1010.70 1010.04 1009.42 1008.88 1008.44 1008.11 1007.88 1007.73 1007.64 1007.57 1007.51 1007.45 1007.40 1007.37 1007.39 1007.46 1007.61 1007.83 1008.12 1008.44 1008.78 1009.08 1009.33 1009.51 1009.59 1009.61 1009.57 1009.50 1009.44
1014.12 1013.81 1013.53 1013.25 1012.96 1012.63 1012.22 1011.73 1011.16 1010.54 1009.90 1009.27 1008.70 1008.21 1007.82 1007.52 1007.31 1007.16 1007.05 1006.97 1006.89 1006.83 1006.81 1006.82 1006.90 1007.05 1007.27 1007.55 1007.87 1008.19 1008.49 1008.72 1008.89 1008.97 1008.98 1008.94 1008.89 1008.86
1013.86 1013.48 1013.15 1012.85 1012.55 1012.24 1011.86 1011.42 1010.91 1010.34 1009.73 1009.12 1008.55 1008.03 1007.60 1007.26 1006.99 1006.78 1006.62 1006.48 1006.37 1006.29 1006.24 1006.24 1006.30 1006.43 1006.63 1006.89 1007.19 1007.49 1007.76 1007.99 1008.15 1008.24 1008.27 1008.27 1008.27 1008.31
1013.50 1013.06 1012.68 1012.34 1012.03 1011.73 1011.39 1011.00 1010.54 1010.03 1009.48 1008.91 1008.35 1007.84 1007.39 1007.00 1006.68 1006.42 1006.20 1006.01 1005.86 1005.73 1005.65 1005.62 1005.65 1005.75 1005.93 1006.16 1006.43 1006.70 1006.97 1007.19 1007.36 1007.48 1007.55 1007.62 1007.70 1007.83
1013.04 1012.55 1012.11 1011.74 1011.42 1011.11 1010.79 1010.45 1010.05 1009.59 1009.10 1008.58 1008.05 1007.55 1007.09 1006.67 1006.31 1006.00 1005.73 1005.50 1005.30 1005.14 1005.02 1004.96 1004.97 1005.04 1005.19 1005.40 1005.65 1005.91 1006.17 1006.40 1006.60 1006.76 1006.91 1007.05 1007.23 1007.47
1012.49 1011.96 1011.49 1011.09 1010.74 1010.43 1010.13 1009.81 1009.45 1009.05 1008.60 1008.12 1007.63 1007.14 1006.67 1006.24 1005.85 1005.50 1005.20 1004.93 1004.70 1004.51 1004.37 1004.30 1004.29 1004.35 1004.49 1004.69 1004.93 1005.20 1005.47 1005.72 1005.96 1006.19 1006.41 1006.64 1006.92 1007.26
1011.91 1011.36 1010.87 1010.44 1010.08 1009.76 1009.46 1009.15 1008.82 1008.45 1008.03 1007.58 1007.11 1006.64 1006.17 1005.73 1005.32 1004.95 1004.62 1004.33 1004.09 1003.89 1003.76 1003.69 1003.68 1003.76 1003.90 1004.11 1004.36 1004.65 1004.94 1005.24 1005.53 1005.81 1006.11 1006.43 1006.79 1007.22
1011.37 1010.82 1010.32 1009.89 1009.50 1009.17 1008.86 1008.55 1008.22 1007.86 1007.46 1007.03 1006.58 1006.11 1005.65 1005.21 1004.80 1004.42 1004.09 1003.80 1003.56 1003.38 1003.26 1003.22 1003.24 1003.34 1003.51 1003.73 1004.01 1004.32 1004.64 1004.98 1005.31 1005.66 1006.01 1006.39 1006.82 1007.30
1010.93 1010.39 1009.89 1009.45 1009.05 1008.69 1008.36 1008.04 1007.70 1007.34 1006.95 1006.53 1006.09 1005.64 1005.19 1004.76 1004.36 1004.00 1003.68 1003.41 1003.20 1003.05 1002.97 1002.95 1003.01 1003.14 1003.34 1003.59 1003.89 1004.22 1004.56 1004.92 1005.29 1005.66 1006.05 1006.47 1006.92 1007.41
1010.60 1010.08 1009.58 1009.12 1008.70 1008.31 1007.96 1007.61 1007.27 1006.91 1006.52 1006.12 1005.70 1005.27 1004.85 1004.45 1004.08 1003.74 1003.46 1003.23 1003.05 1002.95 1002.90 1002.93 1003.02 1003.17 1003.39 1003.66 1003.96 1004.29 1004.65 1005.01 1005.38 1005.76 1006.15 1006.56 1006.99 1007.47
1010.35 1009.83 1009.32 1008.84 1008.39 1007.98 1007.60 1007.23 1006.87 1006.51 1006.15 1005.77 1005.39 1005.00 1004.63 1004.27 1003.95 1003.66 1003.43 1003.24 1003.12 1003.05 1003.04 1003.10 1003.21 1003.38 1003.59 1003.85 1004.14 1004.46 1004.79 1005.12 1005.46 1005.81 1006.17 1006.54 1006.94 1007.36
1010.11 1009.57 1009.04 1008.52 1008.04 1007.59 1007.18 1006.81 1006.45 1006.10 1005.77 1005.43 1005.10 1004.78 1004.47 1004.18 1003.92 1003.70 1003.52 1003.38 1003.30 1003.27 1003.29 1003.36 1003.48 1003.64 1003.83 1004.06 1004.31 1004.58 1004.86 1005.14 1005.43 1005.72 1006.03 1006.34 1006.67 1007.02
1009.79 1009.22 1008.64 1008.08 1007.55 1007.08 1006.65 1006.27 1005.92 1005.61 1005.31 1005.04 1004.77 1004.53 1004.29 1004.08 1003.90 1003.74 1003.62 1003.54 1003.49 1003.49 1003.52 1003.59 1003.69 1003.82 1003.97 1004.15 1004.34 1004.54 1004.75 1004.96 1005.18 1005.41 1005.64 1005.88 1006.15 1006.43
1009.33 1008.70 1008.07 1007.46 1006.90 1006.40 1005.96 1005.58 1005.26 1004.99 1004.75 1004.54 1004.35 1004.18 1004.02 1003.89 1003.77 1003.68 1003.61 1003.56 1003.55 1003.56 1003.59 1003.64 1003.71 1003.80 1003.90 1004.01 1004.13 1004.25 1004.39 1004.52 1004.67 1004.83 1004.99 1005.17 1005.37 1005.59
1008.71 1008.02 1007.34 1006.70 1006.12 1005.60 1005.17 1004.81 1004.52 1004.29 1004.10 1003.95 1003.82 1003.72 1003.63 1003.55 1003.48 1003.43 1003.39 1003.37 1003.36 1003.37 1003.39 1003.41 1003.45 1003.48 1003.53 1003.57 1003.62 1003.68 1003.74 1003.82 1003.90 1004.00 1004.11 1004.25 1004.40 1004.59
1007.98 1007.26 1006.55 1005.90 1005.31 1004.81 1004.39 1004.06 1003.80 1003.61 1003.46 1003.35 1003.26 1003.19 1003.12 1003.07 1003.02 1002.98 1002.95 1002.93 1002.91 1002.91 1002.90 1002.90 1002.89 1002.88 1002.88 1002.87 1002.86 1002.86 1002.88 1002.90 1002.94 1003.00 1003.08 1003.19 1003.33 1003.49
1007.25 1006.53 1005.84 1005.21 1004.65 1004.18 1003.80 1003.50 1003.27 1003.09 1002.96 1002.86 1002.76 1002.68 1002.60 1002.53 1002.46 1002.39 1002.34 1002.29 1002.25 1002.21 1002.18 1002.15 1002.11 1002.07 1002.02 1001.97 1001.93 1001.90 1001.87 1001.87 1001.89 1001.93 1002.00 1002.10 1002.23 1002.40
1006.65 1005.98 1005.35 1004.78 1004.28 1003.87 1003.54 1003.27 1003.06 1002.89 1002.73 1002.59 1002.45 1002.31 1002.17 1002.02 1001.89 1001.76 1001.65 1001.55 1001.47 1001.40 1001.34 1001.28 1001.21 1001.15 1001.08 1001.01 1000.94 1000.88 1000.84 1000.82 1000.83 1000.86 1000.93 1001.03 1001.17 1001.35
1006.30 1005.72 1005.19 1004.72 1004.32 1003.99 1003.71 1003.47 1003.26 1003.06 1002.86 1002.64 1002.41 1002.16 1001.91 1001.66 1001.42 1001.20 1001.01 1000.85 1000.71 1000.60 1000.50 1000.42 1000.33 1000.25 1000.16 1000.08 1000.00 999.93 999.87 999.84 999.84 999.88 999.94 1000.05 1000.19 1000.38
1006.26 1005.82 1005.42 1005.08 1004.79 1004.54 1004.32 1004.10 1003.88 1003.62 1003.34 1003.01 1002.65 1002.27 1001.88 1001.49 1001.12 1000.80 1000.51 1000.27 1000.08 999.92 999.79 999.69 999.58 999.49 999.39 999.28 999.19 999.10 999.03 998.99 998.98 999.00 999.06 999.16 999.30 999.47
Thickness
5618 5616 5614 5614 5613 5612 5611 5609 5607 5607 5610 5612 5612 5612 5610 5609 5607 5606 5605 5604 5604 5604 5605 5605 5606 5608 5610 5613 5616 5619 5621 5623 5625 5627 5629 5632 5634 5636
5613 5610 5609 5610 5609 5608 5607 5606 5604 5601 5602 5607 5606 5607 5605 5604 5603 5602 5601 5600 5600 5600 5600 5600 5601 5603 5604 5606 5609 5611 5614 5616 5617 5619 5621 5624 5627 5630
5609 5607 5605 5604 5604 5604 5603 5602 5600 5598 5597 5601 5602 5602 5598 5598 5598 5597 5597 5597 5598 5597 5596 5596 5596 5597 5599 5601 5603 5605 5607 5608 5610 5612 5614 5616 5619 5621
5606 5603 5602 5601 5599 5599 5598 5597 5596 5594 5592 5593 5595 5596 5595 5594 5593 5593 5594 5595 5594 5594 5593 5592 5592 5593 5594 5595 5596 5598 5599 5601 5603 5605 5607 5609 5612 5613
5602 5600 5599 5597 5595 5595 5592 5593 5593 5592 5590 5589 5590 5591 5591 5591 5589 5589 5590 5589 5591 5591 5590 5589 5588 5588 5589 5590 5591 5592 5593 5595 5597 5598 5600 5602 5604 5607
5599 5598 5596 5594 5592 5591 5590 5589 5589 5587 5587 5586 5586 5587 5587 5586 5584 5584 5585 5586 5587 5589 5588 5587 5586 5585 5586 5586 5587 5588 5588 5589 5591 5592 5594 5595 5598 5600
5598 5596 5595 5592 5588 5586 5586 5586 5584 5583 5584 5583 5582 5583 5583 5580 5580 5580 5580 5580 5582 5584 5584 5585 5585 5585 5585 5584 5583 5583 5584 5585 5586 5587 5588 5590 5591 5593
5597 5595 5594 5591 5587 5583 5581 5580 5578 5577 5578 5578 5579 5578 5577 5577 5575 5574 5574 5575 5575 5579 5579 5580 5582 5583 5584 5584 5583 5581 5580 5580 5580 5581 5583 5584 5585 5587
5595 5593 5593 5592 5587 5585 5582 5579 5577 5574 5571 5572 5574 5573 5573 5573 5571 5570 5569 5569 5570 5573 5573 5575 5579 5579 5581 5582 5578 5576 5575 5575 5575 5576 5577 5578 5580 5581
5594 5592 5590 5588 5586 5582 5580 5580 5578 5577 5574 5571 5570 5570 5570 5569 5567 5566 5565 5566 5567 5569 5569 5570 5574 5575 5578 5577 5574 5572 5571 5570 5571 5571 5572 5573 5574 5576
5593 5591 5588 5585 5580 5576 5575 5576 5576 5575 5573 5570 5568 5566 5564 5562 5561 5561 5563 5564 5566 5569 5570 5569 5570 5571 5572 5573 5572 5568 5567 5566 5566 5566 5567 5568 5569 5569
5592 5590 5585 5581 5576 5572 5572 5572 5572 5572 5570 5569 5566 5564 5563 5563 5560 5558 5561 5563 5565 5566 5569 5566 5567 5567 5567 5569 5569 5567 5565 5563 5563 5562 5562 5563 5563 5564
5590 5588 5585 5577 5572 5568 5565 5567 5566 5564 5565 5566 5566 5565 5564 5563 5562 5561 5560 5560 5562 5563 5565 5563 5563 5564 5563 5563 5564 5565 5565 5564 5562 5561 5559 5559 5559 5559
5585 5584 5580 5572 5567 5564 5563 5562 5560 5558 5562 5564 5564 5564 5563 5562 5561 5560 5559 5558 5558 5559 5559 5558 5558 5558 5558 5558 5558 5560 5560 5560 5560 5560 5559 5556 5554 5554
5581 5576 5571 5567 5564 5564 5562 5559 5558 5559 5561 5561 5561 5561 5561 5560 5559 5557 5556 5554 5554 5555 5555 5554 5553 5553 5553 5554 5554 5554 5554 5555 5556 5556 5555 5555 5554 5552
5578 5575 5569 5566 5564 5561 5561 5560 5559 5559 5558 5557 5558 5558 5558 5556 5555 5555 5554 5553 5552 5552 5553 5552 5550 5549 5549 5549 5550 5551 5551 5550 5551 5551 5550 5550 5550 5550
5572 5573 5573 5571 5569 5566 5564 5562 5560 5558 5556 5554 5553 5553 5552 5552 5552 5551 5550 5549 5549 5550 5550 5550 5549 5547 5546 5546 5546 5548 5548 5547 5547 5546 5544 5544 5545 5545
5567 5571 5570 5567 5565 5563 5560 5558 5556 5554 5553 5552 5550 5549 5548 5548 5548 5549 5548 5546 5546 5546 5546 5547 5546 5544 5543 5545 5543 5544 5544 5544 5543 5542 5541 5540 5541 5541
5568 5568 5566 5563 5561 5558 5555 5553 5551 5549 5548 5547 5546 5544 5544 5543 5543 5543 5544 5544 5543 5543 5543 5543 5542 5541 5540 5542 5544 5540 5540 5540 5538 5538 5537 5537 5537 5538
5568 5566 5563 5560 5557 5553 5550 5548 5546 5544 5543 5541 5540 5539 5538 5538 5538 5538 5539 5538 5539 5539 5540 5539 5538 5537 5537 5538 5540 5539 5535 5535 5534 5534 5533 5533 5533 5531
5568 5563 5560 5556 5553 5549 5545 5543 5541 5539 5537 5535 5535 5533 5532 5532 5532 5533 5533 5531 5531 5534 5535 5536 5535 5531 5532 5533 5534 5535 5535 5530 5529 5529 5529 5529 5529 5528
5564 5560 5557 5553 5549 5545 5541 5538 5536 5534 5531 5530 5528 5527 5527 5526 5526 5526 5527 5527 5527 5527 5529 5531 5530 5529 5529 5529 5530 5530 5530 5528 5525 5522 5521 5522 5524 5524
5560 5556 5553 5549 5546 5541 5537 5534 5531 5529 5526 5524 5523 5522 5521 5521 5520 5520 5519 5520 5520 5521 5523 5523 5524 5524 5524 5525 5526 5526 5525 5525 5524 5522 5520 5517 5515 5514